Regional Weather Roundup
Issued by NWS Mt. Holly, NJ

Home | Current Version | Previous Version | Text Only | Print | Product List | Glossary On
Versions: 1 2 3 4 5 6 7 8 9 10 11 12 13 14 15 16 17 18 19 20 21 22 23 24 25 26 27 28 29 30 31 32 33 34 35 36 37 38 39 40 41 42 43 44 45 46 47 48 49 50
000
ASUS41 KPHI 190710
RWRPHI

REGIONAL WEATHER ROUNDUP
NATIONAL WEATHER SERVICE MOUNT HOLLY NJ
300 AM EDT FRI SEP 19 2014

NOTE:  "FAIR" INDICATES FEW OR NO CLOUDS BELOW 12,000 FEET WITH NO
SIGNIFICANT WEATHER AND/OR OBSTRUCTIONS TO VISIBILITY.

 * = STATION DOES NOT REPORT PRECIPITATION (E.G. RAIN, SNOW, ETC.)
        OR FOG.

NJZ015>026-190800-
SOUTHERN NEW JERSEY

CITY           SKY/WX    TMP DP  RH WIND       PRES   REMARKS
POMONA         MOCLDY    56  53  90 NW3       30.12R
RIO GRANDE*    CLEAR     55  52  88 CALM      30.13R
MILLVILLE      CLEAR     53  52  96 CALM      30.12R
WRIGHTSTOWN    PTCLDY    55  50  83 N9        30.12R
MOUNT HOLLY    CLEAR     58  50  75 N7        30.14R
TRENTON        CLEAR     57  48  72 N7        30.15R

$$
NJZ001>014-190800-
NORTHERN NEW JERSEY

CITY           SKY/WX    TMP DP  RH WIND       PRES   REMARKS
SUSSEX         MOCLDY    55  48  77 N6        30.20R
ANDOVER*         N/A     51  49  92 NE3       30.19R
MORRISTOWN     CLEAR     50  46  87 CALM      30.18R
NEWARK         CLEAR     59  50  72 N13       30.16R
TETERBORO      CLEAR     58  48  69 N5        30.16R
CALDWELL       CLEAR     55  49  80 NE3       30.18R
SOMERVILLE     CLEAR     54  48  80 N5        30.15R
ALLAIRE*       CLEAR     61  48  63 NE9       30.14R
TOMS RIVER*    CLEAR     55  52  88 N5        30.13S

$$
PAZ043-044-047-054-055-060>062-066>071-190800-
EASTERN PENNSYLVANIA

CITY           SKY/WX    TMP DP  RH WIND       PRES   REMARKS
PHILADELPHIA   CLEAR     60  49  66 N12       30.14R
NORTH PHILA    CLEAR     59  48  67 N9        30.16R
BLUE BELL      CLEAR     57  52  82 N3        30.15R
DOYLESTOWN     CLEAR     54  49  83 N7        30.16R
QUAKERTOWN*    CLEAR     55  48  76 N6        30.18R
POTTSTOWN      CLEAR     56  48  74 CALM      30.18R
LANCASTER      CLEAR     53  47  79 NE6       30.16R
COATESVILLE    CLEAR     55  50  82 N7        30.17R
READING        CLEAR     56  48  74 N5        30.17R
ALLENTOWN      CLEAR     52  47  83 CALM      30.18R
MOUNT POCONO   CLEAR     46  43  89 NW6       30.19R
HAZLETON       PTCLDY    50  45  81 CALM      30.23S
WILKES BARRE   CLEAR     51  45  79 N5        30.21R

$$
DEZALL-MDZ008-012-015-019-020-190800-
DELAWARE AND EASTERN MARYLAND

CITY           SKY/WX    TMP DP  RH WIND       PRES   REMARKS
WILMINGTON     CLEAR     58  51  78 N10       30.15R
DOVER          CLEAR     55  54  94 NW8       30.10R
GEORGETOWN     CLEAR     58  55  90 CALM      30.12S
EASTON         CLEAR     58  58 100 CALM      30.16S
PATUXENT       CLEAR     58  56  93 SW5       30.12R
OCEAN CITY     PTCLDY    57  54  89 CALM      30.12R
WALLOPS ISLAND PTCLDY    62  58  86 NW3       30.13R
CAMBRIDGE        N/A     55  54  94 CALM      30.12R
SALISBURY      CLEAR     61  57  87 CALM      30.12R

$$
PAZ001-021-NYZ056-072-MDZ011-DCZ001-190800-
OTHER NEARBY LOCATIONS

CITY           SKY/WX    TMP DP  RH WIND       PRES   REMARKS
HARRISBURG     PTCLDY    53  48  83 NW6       30.17R
STATE COLLEGE    N/A     50  47  90 NE6       30.21R
WILLIAMSPORT   CLEAR     49  46  90 CALM      30.21R
BINGHAMTON     CLEAR     42  39  89 N9        30.23R
NEW YORK CITY  CLEAR     61  47  59 VRB6      30.19R
BALTIMORE      PTCLDY    55  54  96 CALM      30.13S
WASHINGTON DC  CLEAR     64  59  83 N5        30.14R

$$


USA.gov is the U.S. government's official web portal to all federal, state and local government web resources and services.